TimeCST,TemperatureF,Dew PointF,Humidity,Sea Level PressureIn,VisibilityMPH,Wind Direction,Wind SpeedMPH,Gust SpeedMPH,PrecipitationIn,Events,Conditions,WindDirDegrees,DateUTC
12:57 AM,12.0,5.0,73,30.59,10.0,NNE,6.9,-,N/A,,Clear,20,2013-12-07 06:57:00
1:57 AM,9.0,1.9,73,30.61,10.0,NNE,6.9,-,N/A,,Clear,30,2013-12-07 07:57:00
2:57 AM,8.1,1.9,76,30.62,10.0,NNE,4.6,-,N/A,,Clear,20,2013-12-07 08:57:00
3:57 AM,7.0,1.0,77,30.62,10.0,NNE,4.6,-,N/A,,Clear,20,2013-12-07 09:57:00
4:57 AM,5.0,-0.0,80,30.61,10.0,NE,5.8,-,N/A,,Clear,40,2013-12-07 10:57:00
5:57 AM,5.0,-0.0,80,30.63,10.0,NE,5.8,-,N/A,,Clear,40,2013-12-07 11:57:00
6:57 AM,5.0,-0.0,80,30.66,10.0,NNE,6.9,-,N/A,,Clear,30,2013-12-07 12:57:00
7:57 AM,5.0,-0.9,76,30.67,10.0,NNE,4.6,-,N/A,,Clear,30,2013-12-07 13:57:00
8:57 AM,10.0,1.0,67,30.66,10.0,NE,6.9,-,N/A,,Clear,50,2013-12-07 14:57:00
9:57 AM,15.1,3.9,61,30.66,10.0,ENE,11.5,-,N/A,,Clear,60,2013-12-07 15:57:00
10:57 AM,16.0,5.0,62,30.64,10.0,ENE,10.4,-,N/A,,Clear,60,2013-12-07 16:57:00
11:57 AM,21.0,7.0,55,30.63,10.0,ENE,6.9,-,N/A,,Clear,70,2013-12-07 17:57:00
12:57 PM,23.0,6.1,48,30.57,10.0,ENE,8.1,-,N/A,,Clear,60,2013-12-07 18:57:00
1:57 PM,21.0,6.1,53,30.48,10.0,NE,18.4,-,N/A,,Clear,50,2013-12-07 19:57:00
2:57 PM,21.9,7.0,53,30.48,10.0,NE,13.8,-,N/A,,Clear,50,2013-12-07 20:57:00
3:57 PM,21.0,8.1,57,30.50,10.0,ENE,8.1,-,N/A,,Clear,60,2013-12-07 21:57:00
4:57 PM,19.9,8.1,60,30.48,10.0,North,-9999.0,-,N/A,,Mostly Cloudy,0,2013-12-07 22:57:00
5:57 PM,19.9,9.0,62,30.48,10.0,North,-9999.0,-,N/A,,Overcast,0,2013-12-07 23:57:00
6:57 PM,19.9,9.0,62,30.48,10.0,North,-9999.0,-,N/A,,Overcast,0,2013-12-08 00:57:00
7:57 PM,19.9,10.0,65,30.45,9.0,North,-9999.0,-,0.00,Snow,Light Snow,0,2013-12-08 01:57:00
8:57 PM,19.9,12.0,71,30.41,9.0,North,-9999.0,-,0.00,,Overcast,0,2013-12-08 02:57:00
9:57 PM,21.0,12.0,68,30.37,10.0,North,-9999.0,-,N/A,,Overcast,0,2013-12-08 03:57:00
10:57 PM,21.0,12.0,68,30.37,10.0,East,10.4,-,N/A,,Overcast,90,2013-12-08 04:57:00
11:57 PM,21.0,10.9,65,30.33,10.0,East,10.4,-,N/A,,Overcast,80,2013-12-08 05:57:00